Indianapolis, IN

12:07 AM EDT on March 27, 2017 (GMT -0400)
Indianapolis Terry

Weather History for KTYQ - April, 2013

Change the Weather History Date:

Friday, April 12, 2013

  Actual Average (KEYE) Record (KEYE)
Temperature  
Mean Temperature 42 °F -  
Max Temperature 45 °F 60 °F 78 °F (2006)
Min Temperature 37 °F 41 °F 32 °F (2012)
Degree Days  
Heating Degree Days 23    
Moisture  
Dew Point 32 °F    
Average Humidity 70    
Maximum Humidity 88    
Minimum Humidity 58    
Precipitation  
Precipitation 0.02 in - - ()
Sea Level Pressure  
Sea Level Pressure 29.76 in    
Wind  
Wind Speed 14 mph (WSW)    
Max Wind Speed 21 mph    
Max Gust Speed 29 mph    
Visibility 10 miles    
Events Rain    
Averages and records for this station are not official NWS values.
T = Trace of Precipitation, MM = Missing Value Source: NWS Daily Summary

Daily Weather History Graph

Daily Weather History Graph

Search for Another Location

Airport or City:

Trip Planner

Search our weather history database for the weather conditions in past years. The results will help you decide how hot, cold, wet, or windy it might be!

Date:

Astronomy

Apr. 12, 2013 Rise Set
Actual Time 7:11 AM EDT 8:20 PM EDT
Civil Twilight 6:43 AM EDT 8:48 PM EDT
Nautical Twilight 6:10 AM EDT 9:22 PM EDT
Astronomical Twilight 5:35 AM EDT 9:57 PM EDT
Moon 8:20 AM EDT (4/12) 10:50 PM EDT (4/12)
Length of Visible Light 14h 05m
Length of Day
13h 09m
Waxing Crescent, 5% of the Moon is Illuminated
Apr 12
Waxing Crescent
Apr 18
First Quarter
Apr 25
Full
May 2
Last Quarter
May 9
New

Hourly Weather History & Observations

Time (EDT) Temp. Windchill Dew Point Humidity Pressure Visibility Wind Dir Wind Speed Gust Speed Precip Events Conditions
12:15 AM 47.5 °F - 43.9 °F 87% 29.61 in 4.0 mi WNW 9.2 mph - N/A Rain Rain
12:35 AM 46.6 °F - 43.2 °F 88% 29.61 in 4.0 mi WNW 12.7 mph 16.1 mph 0.01 in   Drizzle
12:55 AM 45.3 °F 39.0 °F 41.9 °F 88% 29.62 in 5.0 mi WNW 13.8 mph 18.4 mph 0.02 in   Light Drizzle
1:15 AM 44.2 °F 38.0 °F 40.3 °F 86% 29.62 in 10.0 mi WNW 12.7 mph 19.6 mph N/A   Overcast
1:35 AM 44.6 °F 37.8 °F 39.6 °F 82% 29.63 in 10.0 mi West 15.0 mph 23.0 mph N/A   Overcast
1:55 AM 44.1 °F 37.7 °F 38.5 °F 81% 29.63 in 10.0 mi WNW 12.7 mph 23.0 mph N/A   Overcast
2:15 AM 43.3 °F 35.8 °F 37.4 °F 80% 29.64 in 10.0 mi West 16.1 mph 23.0 mph N/A   Overcast
2:35 AM 42.6 °F 34.9 °F 36.7 °F 79% 29.65 in 10.0 mi West 16.1 mph 26.5 mph N/A   Overcast
2:55 AM 41.5 °F 34.2 °F 34.5 °F 76% 29.65 in 10.0 mi West 13.8 mph 21.9 mph N/A   Overcast
3:15 AM 41.0 °F 32.8 °F 33.6 °F 75% 29.65 in 10.0 mi West 16.1 mph 23.0 mph N/A   Overcast
3:35 AM 40.3 °F 31.9 °F 32.0 °F 72% 29.63 in 10.0 mi West 16.1 mph 24.2 mph N/A   Overcast
3:55 AM 40.1 °F 32.4 °F 32.0 °F 73% 29.63 in 10.0 mi West 13.8 mph 19.6 mph N/A   Overcast
4:15 AM 39.7 °F 31.2 °F 32.0 °F 74% 29.64 in 10.0 mi West 16.1 mph 25.3 mph N/A   Overcast
4:35 AM 39.6 °F 31.7 °F 31.6 °F 73% 29.64 in 10.0 mi West 13.8 mph 23.0 mph N/A   Overcast
4:55 AM 39.4 °F 30.4 °F 30.2 °F 70% 29.65 in 10.0 mi West 17.3 mph 24.2 mph N/A   Overcast
5:15 AM 39.2 °F 30.8 °F 30.7 °F 72% 29.65 in 10.0 mi West 15.0 mph 23.0 mph N/A   Overcast
5:35 AM 38.8 °F 29.7 °F 30.2 °F 71% 29.66 in 10.0 mi West 17.3 mph 23.0 mph N/A   Overcast
5:55 AM 38.5 °F 30.7 °F 29.8 °F 71% 29.66 in 10.0 mi West 12.7 mph 21.9 mph N/A   Overcast
6:15 AM 37.9 °F 29.2 °F 28.8 °F 70% 29.67 in 10.0 mi West 15.0 mph 19.6 mph N/A   Overcast
6:35 AM 37.8 °F 29.4 °F 29.1 °F 71% 29.67 in 10.0 mi West 13.8 mph 17.3 mph N/A   Overcast
6:55 AM 37.6 °F 30.5 °F 28.2 °F 69% 29.69 in 10.0 mi West 10.4 mph 25.3 mph N/A   Overcast
7:15 AM 37.4 °F 29.3 °F 28.4 °F 70% 29.69 in 10.0 mi West 12.7 mph 18.4 mph N/A   Overcast
7:35 AM 37.4 °F 28.2 °F 27.9 °F 68% 29.69 in 10.0 mi West 16.1 mph 21.9 mph N/A   Overcast
7:55 AM 37.4 °F 29.8 °F 27.9 °F 68% 29.71 in 10.0 mi WSW 11.5 mph 18.4 mph N/A   Overcast
8:15 AM 37.4 °F 30.3 °F 28.8 °F 71% 29.71 in 10.0 mi West 10.4 mph - N/A   Overcast
8:35 AM 37.8 °F 30.2 °F 28.6 °F 69% 29.71 in 10.0 mi WSW 11.5 mph - N/A   Overcast
8:55 AM 37.9 °F 30.5 °F 28.4 °F 69% 29.71 in 10.0 mi WSW 11.5 mph 19.6 mph N/A   Overcast
9:15 AM 37.9 °F 30.0 °F 28.9 °F 70% 29.72 in 10.0 mi WSW 12.7 mph 17.3 mph N/A   Overcast
9:35 AM 38.3 °F 29.7 °F 30.2 °F 73% 29.72 in 10.0 mi SW 15.0 mph - N/A   Overcast
9:55 AM 38.7 °F 29.8 °F 29.8 °F 71% 29.72 in 10.0 mi SW 16.1 mph 23.0 mph N/A   Overcast
10:15 AM 39.2 °F 30.2 °F 30.4 °F 71% 29.72 in 10.0 mi SW 17.3 mph 21.9 mph N/A   Overcast
10:55 AM 40.1 °F 32.4 °F 30.7 °F 69% 29.73 in 10.0 mi WSW 13.8 mph 17.3 mph N/A   Overcast
11:15 AM 41.0 °F 33.9 °F 30.0 °F 65% 29.73 in 10.0 mi WSW 12.7 mph 23.0 mph N/A   Overcast
11:35 AM 41.4 °F 33.0 °F 30.4 °F 65% 29.73 in 10.0 mi WSW 17.3 mph 21.9 mph N/A   Overcast
11:55 AM 41.4 °F 34.3 °F 30.4 °F 65% 29.74 in 10.0 mi WSW 12.7 mph 20.7 mph N/A   Overcast
12:15 PM 41.7 °F 33.7 °F 28.4 °F 59% 29.74 in 10.0 mi WSW 16.1 mph 21.9 mph N/A   Overcast
12:35 PM 41.9 °F 35.4 °F 29.3 °F 61% 29.75 in 10.0 mi WSW 11.5 mph 15.0 mph N/A   Overcast
12:55 PM 42.3 °F 34.4 °F 28.9 °F 59% 29.75 in 10.0 mi SW 16.1 mph 21.9 mph N/A   Overcast
1:15 PM 42.8 °F 34.5 °F 28.8 °F 58% 29.75 in 10.0 mi WSW 18.4 mph 25.3 mph N/A   Overcast
1:35 PM 42.8 °F 34.8 °F 28.8 °F 58% 29.75 in 10.0 mi WSW 17.3 mph 23.0 mph N/A   Overcast
1:55 PM 42.3 °F 35.1 °F 28.9 °F 59% 29.76 in 10.0 mi WSW 13.8 mph - N/A   Overcast
2:15 PM 42.1 °F 34.2 °F 28.6 °F 59% 29.76 in 10.0 mi WSW 16.1 mph 23.0 mph N/A   Overcast
2:35 PM 41.9 °F 33.4 °F 28.8 °F 60% 29.77 in 10.0 mi WSW 18.4 mph 25.3 mph N/A   Overcast
2:55 PM 41.9 °F 32.8 °F 28.8 °F 60% 29.78 in 10.0 mi WSW 20.7 mph 26.5 mph N/A   Overcast
3:15 PM 41.7 °F 34.4 °F 29.8 °F 63% 29.79 in 10.0 mi WSW 13.8 mph 24.2 mph N/A   Overcast
3:35 PM 42.3 °F 35.1 °F 30.2 °F 62% 29.79 in 10.0 mi WSW 13.8 mph 25.3 mph N/A   Overcast
3:55 PM 43.7 °F 35.7 °F 31.5 °F 62% 29.80 in 10.0 mi SW 18.4 mph 26.5 mph N/A   Overcast
4:15 PM 43.0 °F 35.7 °F 30.7 °F 62% 29.81 in 10.0 mi WSW 15.0 mph 25.3 mph N/A   Overcast
4:35 PM 42.8 °F 35.4 °F 30.0 °F 61% 29.81 in 10.0 mi WSW 15.0 mph 24.2 mph N/A   Overcast
4:55 PM 42.8 °F 35.4 °F 30.6 °F 62% 29.81 in 10.0 mi WSW 15.0 mph 21.9 mph N/A   Overcast
5:15 PM 42.1 °F 33.1 °F 30.6 °F 64% 29.82 in 10.0 mi WSW 20.7 mph 27.6 mph N/A   Overcast
5:35 PM 42.1 °F 34.9 °F 32.0 °F 67% 29.83 in 10.0 mi WSW 13.8 mph 23.0 mph N/A   Overcast
5:55 PM 42.3 °F 35.1 °F 32.0 °F 67% 29.83 in 10.0 mi WSW 13.8 mph - N/A   Overcast
6:15 PM 42.8 °F 34.8 °F 32.2 °F 66% 29.85 in 10.0 mi West 17.3 mph 23.0 mph N/A   Overcast
6:35 PM 42.6 °F 34.6 °F 32.4 °F 67% 29.86 in 10.0 mi West 17.3 mph 23.0 mph N/A   Overcast
6:55 PM 42.4 °F 35.0 °F 33.1 °F 69% 29.86 in 10.0 mi West 15.0 mph - N/A   Overcast
7:15 PM 42.6 °F 35.9 °F 33.3 °F 69% 29.87 in 10.0 mi WSW 12.7 mph 18.4 mph N/A   Overcast
7:35 PM 41.5 °F 33.5 °F 33.6 °F 73% 29.87 in 5.0 mi West 16.1 mph 28.8 mph N/A   Drizzle
7:55 PM 41.4 °F 32.1 °F 33.8 °F 74% 29.87 in 7.0 mi West 20.7 mph 26.5 mph N/A Rain Rain
8:15 PM 40.6 °F 33.0 °F 34.2 °F 78% 29.88 in 10.0 mi West 13.8 mph 17.3 mph N/A   Overcast
8:35 PM 40.6 °F 33.4 °F 33.8 °F 77% 29.89 in 10.0 mi West 12.7 mph - N/A   Drizzle
8:55 PM 40.3 °F 31.9 °F 33.8 °F 78% 29.89 in 10.0 mi West 16.1 mph 23.0 mph N/A   Drizzle
9:15 PM 39.7 °F 33.2 °F 34.0 °F 80% 29.89 in 10.0 mi West 10.4 mph - N/A   Drizzle
9:35 PM 40.1 °F 32.7 °F 33.3 °F 77% 29.89 in 10.0 mi West 12.7 mph 17.3 mph N/A   Overcast
9:55 PM 40.5 °F 34.1 °F 33.1 °F 75% 29.90 in 10.0 mi WSW 10.4 mph - N/A   Overcast
10:15 PM 40.3 °F 33.0 °F 32.0 °F 72% 29.91 in 10.0 mi WSW 12.7 mph - N/A   Overcast
10:35 PM 40.3 °F 33.0 °F 32.0 °F 72% 29.91 in 10.0 mi WSW 12.7 mph - N/A   Overcast
10:55 PM 40.3 °F 34.4 °F 32.2 °F 73% 29.91 in 10.0 mi WSW 9.2 mph - N/A   Overcast
11:15 PM 40.3 °F 33.9 °F 32.2 °F 73% 29.91 in 10.0 mi WSW 10.4 mph - N/A   Overcast
11:35 PM 40.3 °F 33.9 °F 32.0 °F 72% 29.91 in 10.0 mi WSW 10.4 mph 16.1 mph N/A   Overcast
11:55 PM 40.1 °F 33.2 °F 32.0 °F 73% 29.91 in 10.0 mi WSW 11.5 mph - N/A   Overcast